EWS-G1 (GOES 13) [+]

Last updated on Fri Dec 29 2023 00:02:21 GMT+0000 (Coordinated Universal Time)

1 29155U 06018A 23361.65400056 .00000064 00000+0 00000+0 0 9996 2 29155 2.1754 87.3225 0087518 247.3995 212.0251 0.99155178 34328

Satellite not in orbit

EWS-G1 (GOES 13) [+]